User: anonymous   Login
Location: Unspecified
(0.0000°N, 0.0000°E)
Time: 11:46:06
(UTC+00:00)
Language:

VENTA 1 - Orbit

View from above orbital plane
View from above orbital plane
View from above satellite
View from above satellite

Ground track
Ground track

The orbit data is extracted from the following two-line orbital elements,

1 42791U 17036AC  18168.90793923 +.00000908 +00000-0 +42812-4 0  9994
2 42791 097.4009 228.8041 0013146 077.3041 282.9664 15.21945582054611
Epoch (UTC): 17 June 2018 21:47:25
Eccentricity: 0.0013146
inclination: 97.4009°
perigee height: 491 km
apogee height: 509 km
right ascension of ascending node: 228.8041°
argument of perigee: 77.3041°
revolutions per day: 15.21945582
mean anomaly at epoch: 282.9664°
orbit number at epoch: 5461

The dashed part of the orbit path shows where the satellite is in the earth's shadow,  

DLR